Kosmos-768

operational
NORAD ID: 8292 Int'l Des: 1975-086 Owner: GUKOSR Country: SU
LEOCIRCULAR

Kosmos-768について

説明を読み込み中...

リアルタイム位置

3D地球を読み込み中...

次回通過

高度履歴

Altitude vs Time

uPlot chart will show altitude changes over time

軌道要素

1 08292U 75086H 26062.65109427 -.00000005 00000-0 72362-4 0 9997
2 08292 74.0061 253.1049 0012467 89.9439 336.0275 12.46114078295351
Epoch: Mar 3, 2026 • Age: 31 hours

現在のステータス

高度 1483.0 km
速度 7.13 km/s
衛星直下点 70.82°N, 38.61°E
タイプ other

大規模コンステレーション

Loading constellations...